User: anonymous   Login
Location: Gro�sch�nbrunn
(49.5760°N, 11.8868°E)
Time: 13:50:01
(UTC+00:00)
Language:

Cosmos 1844 Rocket - Orbit

View from above orbital plane
View from above orbital plane
View from above satellite
View from above satellite

Ground track
Ground track

The orbit data is extracted from the following two-line orbital elements,

1 17974U 87041B   21206.90016365  .00000162  00000-0  10377-3 0  9999
2 17974  71.0092 349.9931 0016059 264.2840 257.9648 14.17274707768927
Epoch (UTC): 25 July 2021 21:36:14
Eccentricity: 0.0016059
inclination: 71.0092°
perigee height: 823 km
apogee height: 846 km
right ascension of ascending node: 349.9931°
argument of perigee: 264.2840°
revolutions per day: 14.17274707
mean anomaly at epoch: 257.9648°
orbit number at epoch: 76892

The dashed part of the orbit path shows where the satellite is in the earth's shadow,  

DLR